Wind_Speed
26 26 25 25 24 24 24 24 24 23 22 22 21 20 21 21 22 21 21 21 21 22 23 24 24 25 25 25 25 24 24 24 23 23 22 22 22 21 20 20 21 21 21
25 25 25 25 25 25 24 24 24 23 22 21 21 21 21 22 22 21 21 21 21 21 22 22 23 23 23 23 23 24 24 24 24 22 22 21 20 20 19 19 20 20 20
24 24 24 25 25 24 24 24 23 23 22 21 21 21 21 21 21 20 20 20 21 21 21 22 22 22 22 22 22 22 23 23 23 22 22 21 20 20 20 19 19 19 19
24 24 24 24 24 23 23 23 22 22 21 21 21 21 21 20 20 19 19 19 19 19 19 20 21 21 21 21 21 21 21 22 22 21 21 21 20 20 19 18 18 17 17
25 25 25 24 23 23 23 22 21 20 20 20 20 21 20 20 19 18 18 18 18 18 18 18 18 19 19 20 20 20 20 20 20 20 20 20 19 19 18 17 16 17 17
23 23 23 23 22 22 21 21 21 21 21 21 20 20 20 19 18 18 17 17 18 17 17 17 17 17 17 18 18 18 18 18 18 18 18 18 18 17 16 16 15 15 15
22 21 22 22 21 20 21 21 21 20 20 20 20 20 19 19 18 17 17 17 16 15 14 14 14 15 15 15 15 16 17 17 17 17 16 17 16 15 15 14 13 13 13
19 20 20 20 19 19 19 19 19 19 19 19 19 19 18 17 17 16 15 14 13 13 13 12 12 13 13 13 14 13 14 14 14 14 14 13 13 12 12 12 12 11 11
18 18 18 18 17 17 17 16 16 17 17 17 16 16 15 14 14 13 13 13 12 12 11 11 11 11 11 11 11 11 11 11 11 11 11 11 11 11 10 10 10 10 10
17 17 17 16 16 15 14 14 14 14 13 13 13 12 12 11 11 11 11 11 11 10 10 10 9 10 10 10 9 9 9 9 9 9 9 9 9 9 9 9 8 9 9
14 14 14 13 13 12 12 13 12 11 10 10 9 9 9 9 9 9 9 9 9 8 8 8 8 8 8 8 8 8 8 8 7 7 8 8 8 8 8 8 7 7 7
12 12 11 11 11 10 11 10 10 9 8 7 7 7 7 7 7 7 7 8 8 7 7 7 8 7 7 7 7 7 8 8 7 7 7 7 7 7 7 6 6 6 6
11 10 9 9 9 9 8 8 7 7 7 7 6 6 6 6 5 6 6 6 6 7 6 6 7 6 6 7 7 8 8 8 7 7 7 7 7 7 6 6 5 5 5
9 9 8 8 8 7 6 5 5 6 6 6 5 5 5 5 5 5 4 4 4 5 7 7 6 6 7 7 8 8 8 8 7 6 6 6 6 6 5 5 5 5 5
7 7 6 6 5 5 4 3 3 4 4 4 4 5 5 5 4 4 4 4 5 5 6 6 6 8 8 8 8 8 8 7 7 7 7 7 6 6 5 5 5 5 5
6 5 5 5 4 3 3 3 3 2 1 2 3 4 4 4 4 4 5 5 5 6 6 7 7 8 8 9 8 8 8 8 8 7 7 7 6 5 4 4 4 4 4
6 6 5 4 3 3 2 2 1 0 1 2 3 3 4 4 5 5 6 7 7 7 8 7 7 8 9 9 9 8 8 8 8 7 7 6 5 5 4 4 4 4 4
6 6 5 4 3 3 2 2 2 3 4 5 5 5 4 5 6 7 7 7 7 8 8 7 8 8 9 9 8 8 7 7 7 7 6 5 5 4 3 3 3 3 4
6 6 5 5 4 4 4 4 4 5 6 6 5 5 6 6 7 8 8 7 7 8 8 8 8 8 8 8 8 7 6 6 6 6 5 4 4 3 3 3 4 4 5
8 7 7 6 6 5 5 5 6 6 6 6 6 7 7 8 8 8 7 7 7 7 7 8 8 8 8 8 7 6 6 6 6 6 5 4 3 3 4 4 5 6 7
9 9 8 8 7 6 6 6 6 7 7 7 8 8 8 8 8 7 7 6 7 8 8 8 8 8 7 7 6 6 6 6 6 5 4 4 4 5 5 6 7 8 9
10 10 9 9 8 8 7 7 7 7 7 7 7 7 7 7 6 6 6 7 7 7 7 7 7 6 6 6 5 6 5 5 5 5 5 5 6 7 8 9 10 11 12
10 10 10 9 9 9 8 7 7 7 7 6 6 6 6 5 5 5 6 6 6 6 5 5 5 5 5 5 6 5 5 5 6 6 7 7 8 9 11 11 12 13 14
9 9 9 8 8 8 7 7 6 6 6 5 5 5 5 5 4 4 5 5 5 5 4 4 5 5 6 6 6 7 7 8 8 9 9 10 11 12 13 14 15 16 17
8 8 8 7 7 7 6 6 6 5 5 4 4 4 4 4 3 4 4 4 4 4 5 5 6 6 7 7 8 8 9 10 11 11 12 13 14 15 16 17 18 19 21
6 6 6 6 6 5 5 4 4 3 3 2 2 2 2 2 2 3 4 4 5 5 5 6 7 7 8 9 10 11 12 13 14 14 15 16 17 18 19 20 22 23 25
Wind_Direction
286 285 285 286 286 284 283 282 281 279 278 276 274 272 271 270 269 269 270 269 265 262 261 260 258 258 257 258 257 257 258 258 259 259 260 262 263 265 267 267 264 265 268
285 285 285 285 286 284 282 281 280 278 276 274 273 272 272 271 270 270 269 269 269 266 264 262 260 259 258 257 257 258 257 256 257 257 258 259 259 262 264 265 265 266 267
287 287 287 286 285 283 282 280 279 276 274 273 272 273 273 272 271 269 269 270 271 270 267 264 260 259 258 257 258 259 258 256 255 254 255 257 258 259 261 264 265 265 265
289 288 287 286 284 283 282 280 278 275 274 274 273 272 272 271 269 270 271 272 273 272 271 268 264 261 259 258 258 258 257 255 253 252 253 255 256 257 258 261 263 264 266
289 287 286 285 284 282 281 279 277 275 274 274 273 271 271 271 271 270 271 272 271 273 272 270 265 260 257 256 255 253 253 251 250 251 251 253 253 254 256 258 259 262 264
289 288 286 286 284 281 278 277 276 275 273 271 272 269 268 269 270 270 269 270 270 271 270 266 262 258 256 253 251 249 247 245 247 249 250 249 251 253 253 255 257 259 260
289 288 288 287 284 280 278 278 279 278 274 273 270 268 267 266 267 268 266 271 270 269 267 264 259 254 251 250 246 245 244 245 246 249 248 247 248 250 251 252 254 257 258
290 290 289 289 284 279 278 279 280 278 277 275 271 267 264 263 264 263 264 264 266 267 264 260 258 252 250 249 248 245 243 244 244 242 242 242 240 244 246 251 253 251 250
292 292 292 291 286 281 280 281 281 279 277 275 271 265 265 264 261 258 260 260 262 262 258 257 256 250 245 244 242 239 241 239 234 232 233 235 238 242 242 244 243 243 244
296 293 293 292 288 284 282 282 284 283 277 271 266 260 259 261 258 257 259 261 261 260 255 252 251 246 242 239 237 235 230 225 223 224 229 233 234 233 230 231 236 241 243
298 298 296 294 290 287 284 283 284 282 275 268 259 253 253 254 255 255 256 255 258 257 252 245 241 234 230 230 229 224 214 209 207 210 217 219 220 219 220 225 231 234 237
297 299 297 294 294 292 289 285 284 276 270 262 255 250 248 248 252 251 250 250 249 245 244 239 234 227 222 219 214 204 200 197 194 194 200 204 206 206 209 215 221 228 233
299 302 299 296 297 297 294 287 278 267 264 255 247 244 239 241 243 238 238 235 234 227 226 223 221 219 214 208 203 196 192 189 187 190 197 199 199 203 208 212 221 224 221
305 306 308 304 305 305 298 286 270 262 259 251 242 235 232 226 223 219 214 210 209 209 206 207 206 199 193 189 184 184 184 182 181 182 186 188 188 188 190 193 197 198 194
319 317 316 313 309 310 306 296 285 270 254 241 229 220 216 214 209 210 204 197 189 186 182 183 186 182 175 173 175 176 177 177 176 174 171 168 169 171 175 178 181 184 187
345 341 336 334 328 323 314 310 305 289 234 211 196 191 199 198 193 188 173 169 167 165 163 159 158 161 166 167 164 162 161 162 163 162 162 164 165 169 174 180 188 195 207
1 1 359 354 344 328 318 330 340 26 130 143 150 157 159 162 164 161 155 158 162 163 159 154 152 155 158 158 158 159 162 165 165 162 159 162 166 168 174 187 200 215 233
16 15 17 21 22 13 13 47 82 106 116 122 133 139 140 146 149 150 149 147 154 158 157 156 154 155 157 158 159 161 165 169 169 167 170 175 178 182 193 211 222 235 252
30 35 42 47 51 54 65 79 93 107 114 119 124 130 135 140 148 148 150 151 152 153 152 153 153 154 157 159 162 165 168 171 173 175 178 183 190 205 226 243 252 263 276
46 51 58 60 65 73 85 91 95 108 115 121 124 125 129 133 136 139 144 146 149 151 149 150 153 154 155 158 161 165 168 170 171 176 184 198 218 236 248 259 272 282 289
55 56 58 63 72 80 85 91 96 104 112 117 122 123 123 128 134 138 142 142 145 146 148 150 154 158 162 166 172 176 176 179 187 198 215 234 249 258 265 273 282 288 292
55 56 58 67 72 74 79 89 98 104 109 113 115 122 129 133 137 139 144 148 150 154 159 162 164 165 171 179 187 190 193 203 216 231 247 257 265 271 275 281 287 289 291
57 57 59 65 69 69 74 85 94 101 109 114 120 126 132 135 137 143 148 152 154 154 155 162 172 181 188 198 207 214 223 233 242 253 265 270 275 280 284 287 289 291 293
59 58 61 64 64 68 76 83 88 94 102 111 120 127 135 139 141 149 157 163 171 178 183 192 204 213 217 222 229 237 244 250 258 267 274 276 281 286 288 289 290 292 294
55 58 60 60 64 69 74 78 81 85 93 104 114 127 137 147 156 164 173 183 192 202 212 224 234 237 239 243 248 253 257 263 270 275 278 280 284 286 288 289 290 292 295
50 51 51 50 53 57 61 63 63 67 76 92 110 137 165 188 204 212 215 214 217 227 237 245 248 251 255 260 264 267 270 273 276 278 280 283 286 288 289 289 291 293 295
Height
5797 5795 5793 5791 5790 5788 5787 5785 5784 5783 5782 5781 5780 5779 5779 5778 5778 5777 5777 5776 5776 5776 5776 5776 5777 5777 5778 5778 5779 5780 5781 5782 5783 5784 5784 5784 5784 5785 5785 5785 5785 5785 5784
5789 5788 5786 5784 5782 5781 5779 5778 5777 5776 5775 5775 5773 5773 5772 5771 5770 5770 5770 5769 5769 5769 5769 5769 5769 5769 5770 5771 5772 5772 5773 5774 5776 5777 5777 5777 5778 5779 5779 5779 5779 5779 5779
5782 5780 5778 5777 5775 5773 5772 5770 5769 5769 5768 5768 5767 5766 5765 5764 5764 5763 5763 5763 5762 5762 5761 5761 5761 5762 5762 5763 5764 5765 5766 5767 5768 5770 5771 5771 5772 5773 5773 5773 5773 5773 5773
5775 5773 5771 5769 5767 5766 5764 5763 5763 5762 5761 5761 5760 5759 5759 5758 5757 5757 5757 5756 5755 5755 5754 5754 5753 5754 5755 5756 5757 5758 5759 5760 5762 5763 5764 5765 5766 5767 5767 5768 5768 5768 5768
5767 5765 5763 5762 5760 5758 5757 5757 5756 5755 5754 5754 5753 5753 5752 5751 5751 5750 5750 5750 5749 5748 5748 5747 5747 5747 5748 5749 5750 5751 5753 5754 5755 5757 5758 5759 5760 5761 5762 5762 5763 5763 5763
5760 5758 5756 5754 5753 5751 5750 5750 5749 5748 5748 5747 5746 5746 5745 5745 5745 5744 5744 5743 5743 5742 5741 5741 5741 5741 5742 5743 5744 5745 5747 5749 5750 5751 5753 5754 5755 5756 5756 5757 5758 5758 5758
5753 5751 5749 5747 5746 5745 5744 5743 5742 5741 5741 5740 5740 5739 5739 5739 5739 5738 5738 5737 5737 5736 5735 5735 5735 5736 5737 5738 5739 5740 5742 5743 5745 5747 5748 5749 5750 5751 5752 5753 5753 5754 5754
5747 5745 5743 5741 5739 5738 5737 5736 5735 5735 5734 5734 5733 5733 5733 5733 5733 5732 5732 5732 5732 5731 5731 5731 5731 5732 5733 5733 5735 5736 5737 5739 5740 5742 5743 5745 5746 5747 5748 5749 5749 5750 5751
5741 5739 5737 5735 5734 5733 5731 5731 5729 5729 5728 5728 5727 5727 5727 5727 5727 5727 5727 5728 5728 5727 5727 5727 5728 5728 5729 5730 5731 5733 5734 5735 5737 5738 5740 5741 5742 5744 5745 5746 5747 5747 5748
5736 5734 5732 5730 5728 5727 5726 5726 5725 5724 5723 5722 5722 5722 5722 5723 5723 5723 5723 5724 5724 5724 5724 5724 5725 5726 5726 5728 5729 5730 5731 5733 5734 5736 5737 5739 5740 5741 5742 5743 5744 5745 5746
5731 5729 5727 5725 5724 5723 5722 5721 5720 5720 5719 5719 5718 5719 5719 5719 5720 5720 5720 5721 5721 5722 5722 5722 5723 5724 5725 5726 5727 5728 5730 5731 5732 5734 5736 5737 5739 5740 5741 5742 5743 5743 5744
5727 5725 5723 5722 5721 5719 5718 5717 5717 5716 5716 5716 5716 5716 5717 5717 5717 5717 5718 5718 5719 5719 5720 5721 5722 5723 5724 5725 5726 5727 5728 5730 5732 5733 5734 5736 5737 5739 5739 5740 5741 5742 5742
5723 5722 5720 5719 5718 5717 5716 5715 5714 5714 5714 5714 5714 5714 5715 5715 5715 5716 5716 5717 5717 5718 5719 5720 5721 5722 5723 5724 5725 5727 5728 5730 5731 5733 5734 5735 5737 5738 5738 5739 5740 5741 5741
5721 5719 5718 5717 5716 5715 5713 5713 5712 5712 5712 5712 5712 5712 5713 5713 5714 5714 5715 5715 5716 5717 5718 5719 5721 5722 5723 5724 5725 5727 5728 5730 5731 5732 5733 5735 5736 5737 5737 5738 5739 5740 5740
5719 5718 5716 5715 5714 5713 5712 5711 5711 5710 5710 5710 5711 5711 5712 5712 5713 5714 5714 5715 5716 5717 5718 5719 5720 5722 5723 5725 5726 5727 5729 5730 5731 5732 5733 5735 5735 5736 5737 5738 5739 5739 5740
5718 5717 5715 5714 5713 5712 5711 5711 5710 5710 5710 5709 5709 5710 5711 5712 5713 5714 5714 5715 5716 5718 5719 5720 5721 5722 5724 5725 5726 5728 5729 5731 5732 5733 5734 5735 5736 5736 5737 5738 5738 5739 5739
5718 5717 5715 5714 5713 5712 5711 5711 5710 5710 5710 5710 5710 5710 5711 5712 5713 5714 5715 5716 5717 5719 5720 5721 5722 5724 5725 5726 5728 5729 5730 5731 5732 5733 5734 5735 5736 5737 5737 5738 5738 5738 5738
5718 5717 5716 5715 5714 5713 5712 5711 5711 5711 5711 5711 5711 5712 5712 5713 5714 5715 5717 5718 5719 5720 5721 5722 5723 5725 5726 5727 5729 5730 5731 5732 5733 5734 5735 5736 5736 5737 5737 5737 5737 5737 5737
5720 5718 5717 5716 5715 5714 5714 5713 5713 5712 5713 5713 5713 5714 5714 5715 5716 5717 5718 5720 5721 5722 5723 5724 5725 5726 5727 5729 5730 5731 5732 5733 5734 5735 5735 5736 5736 5737 5737 5737 5736 5736 5735
5722 5720 5719 5718 5717 5717 5716 5716 5715 5715 5715 5715 5716 5716 5717 5717 5718 5720 5721 5722 5723 5724 5724 5726 5727 5728 5729 5730 5731 5732 5733 5733 5734 5735 5735 5736 5736 5736 5736 5735 5735 5735 5734
5724 5723 5722 5721 5720 5719 5719 5718 5718 5718 5718 5718 5719 5719 5720 5720 5721 5722 5723 5724 5724 5725 5726 5727 5728 5729 5730 5731 5732 5733 5733 5734 5734 5735 5735 5735 5735 5735 5734 5734 5733 5732 5731
5727 5726 5725 5724 5723 5722 5722 5721 5721 5721 5721 5721 5721 5722 5723 5723 5724 5724 5725 5726 5726 5727 5728 5729 5729 5730 5731 5732 5733 5733 5733 5734 5734 5734 5734 5734 5733 5733 5732 5731 5730 5729 5728
5730 5729 5728 5727 5726 5726 5725 5725 5724 5724 5724 5724 5724 5725 5725 5726 5726 5726 5727 5727 5728 5728 5729 5729 5730 5731 5731 5732 5732 5733 5733 5733 5733 5733 5733 5732 5731 5730 5729 5728 5727 5726 5724
5733 5732 5731 5730 5729 5729 5728 5728 5727 5727 5727 5727 5727 5727 5727 5728 5728 5728 5728 5728 5729 5729 5730 5730 5731 5731 5731 5731 5732 5732 5732 5731 5731 5731 5730 5729 5728 5727 5726 5725 5723 5721 5719
5736 5735 5734 5733 5732 5731 5731 5730 5730 5730 5729 5729 5729 5729 5729 5729 5729 5730 5730 5730 5730 5730 5730 5730 5730 5730 5730 5730 5730 5730 5730 5729 5729 5728 5727 5726 5725 5724 5722 5720 5718 5717 5714
5738 5737 5736 5735 5734 5734 5733 5733 5732 5732 5731 5731 5731 5731 5731 5730 5730 5730 5730 5730 5730 5730 5730 5729 5729 5729 5729 5728 5728 5727 5727 5726 5725 5724 5723 5722 5721 5719 5717 5715 5713 5711 5708